Weather History for Bigfork, MN

Change the Weather History Date:

Tuesday, October 23, 2012

  Actual Average (KGPZ) Record (KGPZ)
Temperature  
Mean Temperature 48 °F -  
Max Temperature 51 °F 52 °F 79 °F (1963)
Min Temperature 44 °F 30 °F -10 °F (1917)
Degree Days  
Heating Degree Days 18    
Moisture  
Dew Point 45 °F    
Average Humidity 91    
Maximum Humidity 94    
Minimum Humidity 76    
Precipitation  
Precipitation 0.20 in - - ()
Sea Level Pressure  
Sea Level Pressure 29.81 in    
Wind  
Wind Speed 8 mph (ESE)    
Max Wind Speed 13 mph    
Max Gust Speed 17 mph    
Visibility 6 miles    
Events Rain , Thunderstorm    
Averages and records for this station are not official NWS values.
T = Trace of Precipitation, MM = Missing Value Source: NWS Daily Summary

Daily Weather History Graph

Daily Weather History Graph

Search for Another Location

Airport:

Trip Planner

Search our weather history database for the weather conditions in past years. The results will help you decide how hot, cold, wet, or windy it might be!

Date:

Astronomy

Oct. 23, 2012 Rise Set
Actual Time 7:46 AM CDT 6:10 PM CDT
Civil Twilight 7:14 AM CDT 6:42 PM CDT
Nautical Twilight 6:38 AM CDT 7:18 PM CDT
Astronomical Twilight 6:02 AM CDT 7:54 PM CDT
Moon 3:17 PM CDT 1:13 AM CDT
Length of Visible Light 11h 27m
Length of Day
10h 24m
Waxing Gibbous, 67% of the Moon is Illuminated
Oct 23
Waxing Gibbous
Oct 29
Full
Nov 6
Last Quarter
Nov 13
New
Nov 20
First Quarter

Hourly Weather History & Observations

Time (CDT) Temp. Windchill Dew Point Humidity Pressure Visibility Wind Dir Wind Speed Gust Speed Precip Events Conditions
12:33 AM 48.2 °F - 41.0 °F 76% 29.99 in 10.0 mi ESE 8.1 mph 16.1 mph N/A   Mostly Cloudy
12:53 AM 48.2 °F - 41.0 °F 76% 29.97 in 10.0 mi East 9.2 mph - N/A   Mostly Cloudy
1:13 AM 46.4 °F 42.4 °F 42.8 °F 87% 29.97 in 10.0 mi East 8.1 mph - 0.02 in Rain Rain
1:53 AM 46.4 °F 44.3 °F 42.8 °F 87% 29.94 in 10.0 mi East 4.6 mph - N/A Rain Light Rain
2:33 AM 44.6 °F 40.7 °F 42.8 °F 93% 29.94 in 10.0 mi East 6.9 mph - N/A   Mostly Cloudy
2:53 AM 44.6 °F 39.7 °F 42.8 °F 93% 29.93 in 10.0 mi East 9.2 mph - N/A   Mostly Cloudy
3:13 AM 46.4 °F 42.4 °F 42.8 °F 87% 29.92 in 10.0 mi East 8.1 mph - N/A   Mostly Cloudy
3:33 AM 46.4 °F 42.9 °F 42.8 °F 87% 29.90 in 10.0 mi East 6.9 mph - N/A   Mostly Cloudy
3:53 AM 46.4 °F 42.4 °F 42.8 °F 87% 29.89 in 10.0 mi East 8.1 mph 16.1 mph N/A   Mostly Cloudy
4:13 AM 46.4 °F 42.4 °F 42.8 °F 87% 29.89 in 10.0 mi ESE 8.1 mph 16.1 mph N/A   Scattered Clouds
4:33 AM 46.4 °F 43.5 °F 42.8 °F 87% 29.89 in 10.0 mi East 5.8 mph - N/A   Mostly Cloudy
4:53 AM 46.4 °F 44.3 °F 41.0 °F 81% 29.90 in 10.0 mi ENE 4.6 mph - N/A Thunderstorm Overcast
5:13 AM 46.4 °F 43.5 °F 41.0 °F 81% 29.89 in 10.0 mi ENE 5.8 mph - N/A Rain , Thunderstorm Rain
5:53 AM 46.4 °F 45.2 °F 42.8 °F 87% 29.90 in 10.0 mi NE 3.5 mph - 0.01 in Rain Heavy Rain
6:33 AM 44.6 °F 42.2 °F 42.8 °F 93% 29.90 in 5.0 mi ENE 4.6 mph - 0.05 in Rain Heavy Rain
6:53 AM 44.6 °F 42.2 °F 42.8 °F 93% 29.89 in 4.0 mi ENE 4.6 mph - N/A Rain , Thunderstorm Light Thunderstorms and Rain
7:13 AM 44.6 °F 42.2 °F 42.8 °F 93% 29.88 in 3.0 mi NE 4.6 mph - 0.05 in Rain , Thunderstorm Heavy Thunderstorms and Rain
7:53 AM 44.6 °F 42.2 °F 42.8 °F 93% 29.88 in 4.0 mi ENE 4.6 mph - N/A Rain , Thunderstorm Light Thunderstorms and Rain
8:53 AM 46.4 °F 43.5 °F 44.6 °F 93% 29.87 in 5.0 mi East 5.8 mph - N/A Rain Light Rain
9:13 AM 46.4 °F 43.5 °F 44.6 °F 93% 29.86 in 5.0 mi East 5.8 mph - N/A   Drizzle
9:33 AM 46.4 °F 42.4 °F 44.6 °F 93% 29.86 in 3.0 mi East 8.1 mph - N/A Rain Rain
9:53 AM 46.4 °F 42.4 °F 44.6 °F 93% 29.85 in 4.0 mi East 8.1 mph - 0.01 in Rain Light Rain
10:13 AM 46.4 °F 43.5 °F 44.6 °F 93% 29.85 in 5.0 mi East 5.8 mph - 0.01 in Rain Rain
10:33 AM 46.4 °F 42.9 °F 44.6 °F 93% 29.85 in 4.0 mi East 6.9 mph - 0.01 in   Drizzle
10:53 AM 46.4 °F 42.4 °F 44.6 °F 93% 29.84 in 10.0 mi East 8.1 mph - N/A   Overcast
11:13 AM 46.4 °F 41.5 °F 44.6 °F 93% 29.83 in 10.0 mi East 10.4 mph - N/A Rain Rain
11:33 AM 48.2 °F - 44.6 °F 87% 29.82 in 10.0 mi East 8.1 mph - N/A   Light Drizzle
12:13 PM 48.2 °F - - N/A% 29.81 in - East 11.5 mph 16.1 mph N/A   Unknown
12:33 PM 48.2 °F - 46.4 °F 93% 29.82 in 1.8 mi ESE 6.9 mph - N/A   Overcast
12:53 PM 48.2 °F - 46.4 °F 93% 29.80 in 1.8 mi ESE 10.4 mph 17.3 mph N/A   Overcast
1:13 PM 48.2 °F - 46.4 °F 93% 29.79 in 2.0 mi ESE 8.1 mph - 0.01 in   Drizzle
1:33 PM 48.2 °F - 46.4 °F 93% 29.78 in 4.0 mi ESE 12.7 mph - 0.01 in Rain Light Rain
1:53 PM 48.2 °F - 46.4 °F 93% 29.77 in 4.0 mi East 10.4 mph - N/A Rain Light Rain
2:13 PM 48.2 °F - 46.4 °F 93% 29.76 in 4.0 mi ESE 8.1 mph - N/A Rain Light Rain
2:33 PM 48.2 °F - 46.4 °F 93% 29.76 in 5.0 mi ESE 6.9 mph - N/A Rain Light Rain
3:13 PM 48.2 °F - 46.4 °F 93% 29.76 in 10.0 mi ESE 6.9 mph - N/A Thunderstorm Overcast
3:33 PM 48.2 °F - 46.4 °F 93% 29.76 in 2.5 mi ESE 10.4 mph - N/A   Drizzle
3:53 PM 48.2 °F - 46.4 °F 93% 29.74 in 2.5 mi ESE 9.2 mph - N/A   Drizzle
4:13 PM 48.2 °F - 46.4 °F 93% 29.74 in 3.0 mi ESE 11.5 mph 16.1 mph N/A   Drizzle
4:33 PM 48.2 °F - 46.4 °F 93% 29.74 in 5.0 mi ESE 9.2 mph - N/A   Drizzle
4:53 PM 48.2 °F - 46.4 °F 93% 29.73 in 5.0 mi ESE 9.2 mph - N/A   Drizzle
5:13 PM 48.2 °F - 46.4 °F 93% 29.73 in 10.0 mi ESE 8.1 mph - N/A Rain Light Rain
5:33 PM 48.2 °F - 46.4 °F 93% 29.72 in 5.0 mi ESE 11.5 mph - 0.02 in Rain Rain
5:53 PM 48.2 °F - 46.4 °F 93% 29.73 in 5.0 mi ESE 9.2 mph - 0.01 in Rain Heavy Rain
6:13 PM 48.2 °F - 46.4 °F 93% 29.73 in 10.0 mi SE 10.4 mph - 0.01 in Rain Light Rain
6:33 PM 48.2 °F - 46.4 °F 93% 29.74 in 10.0 mi SE 8.1 mph - 0.01 in Rain Light Rain
6:53 PM 48.2 °F - 46.4 °F 93% 29.73 in 4.0 mi SE 9.2 mph - N/A Rain Light Rain
7:13 PM 48.2 °F - 46.4 °F 93% 29.73 in 3.0 mi SE 5.8 mph - N/A   Light Drizzle
7:33 PM 48.2 °F - 46.4 °F 93% 29.72 in 4.0 mi SE 6.9 mph - 0.01 in   Light Drizzle
7:53 PM 48.2 °F - 46.4 °F 93% 29.72 in 3.0 mi SSE 9.2 mph - N/A   Light Drizzle
8:13 PM 48.2 °F - 46.4 °F 93% 29.72 in 4.0 mi SSE 8.1 mph - N/A   Light Drizzle
8:33 PM 48.2 °F - 46.4 °F 93% 29.71 in 3.0 mi SE 5.8 mph - N/A   Overcast
8:53 PM 48.2 °F - 46.4 °F 93% 29.72 in 4.0 mi SSE 6.9 mph - N/A   Overcast
9:13 PM 50.0 °F - 48.2 °F 94% 29.73 in 5.0 mi South 6.9 mph - N/A   Overcast
9:33 PM 50.0 °F - 48.2 °F 94% 29.73 in 5.0 mi South 5.8 mph - N/A Rain , Thunderstorm Rain
9:53 PM 50.0 °F - 48.2 °F 94% 29.72 in 5.0 mi SSE 6.9 mph - N/A   Drizzle
10:13 PM 50.0 °F - 48.2 °F 94% 29.72 in 5.0 mi South 5.8 mph - N/A Rain Light Rain
10:33 PM 50.0 °F - 48.2 °F 94% 29.72 in 3.0 mi South 6.9 mph - N/A   Light Drizzle
10:53 PM 51.8 °F - 48.2 °F 88% 29.72 in 4.0 mi South 9.2 mph - N/A   Light Drizzle
11:13 PM 51.8 °F - 48.2 °F 88% 29.72 in 4.0 mi South 9.2 mph - N/A Rain Light Rain
11:33 PM 51.8 °F - 48.2 °F 88% 29.74 in 2.0 mi SSW 9.2 mph - N/A   Drizzle
11:53 PM 51.8 °F - 48.2 °F 88% 29.75 in 2.5 mi SSW 8.1 mph - N/A Rain Heavy Rain